AZU7664 SBSG-SBPL

Flight info

Callsign AZU7664
Flight time 1h 11m
Altitude 34000
Route OPVAR UZ94 MEBLO
Aircraft B734/M-SDE2E3FHIRW/S

Departure

Time 2026-04-22 22:26
Airport Rio Grande do Norte/São Gonçalo do Amarante–Governador Aluízio Alves International Airport (SBSG)

Arrival

Time 2026-04-22 23:37
Airport Senador Nilo Coelho Airport (SBPL)
Time Latitude Longitude Altitude Speed Heading
2026-04-22 21:23 -5.76478 -35.36942 273 ft 0 kts
2026-04-22 22:13 -5.76479 -35.36942 258 ft 1 kts
2026-04-22 22:14 -5.76481 -35.36943 273 ft 0 kts
2026-04-22 22:16 -5.76485 -35.36943 273 ft 3 kts
2026-04-22 22:17 -5.76499 -35.36945 273 ft 2 kts
2026-04-22 22:17 -5.76501 -35.36946 273 ft 2 kts
2026-04-22 22:17 -5.76515 -35.36948 273 ft 2 kts
2026-04-22 22:17 -5.76530 -35.36950 275 ft 2 kts
2026-04-22 22:18 -5.76546 -35.36953 276 ft 2 kts
2026-04-22 22:18 -5.76562 -35.36951 279 ft 2 kts 316°
2026-04-22 22:18 -5.76571 -35.36938 273 ft 2 kts 300°
2026-04-22 22:18 -5.76574 -35.36930 273 ft 0 kts 278°
2026-04-22 22:20 -5.76574 -35.36931 273 ft 1 kts 278°
2026-04-22 22:20 -5.76568 -35.36970 279 ft 9 kts 280°
2026-04-22 22:20 -5.76554 -35.37055 275 ft 15 kts 279°
2026-04-22 22:21 -5.76543 -35.37126 273 ft 18 kts 279°
2026-04-22 22:21 -5.76553 -35.37231 273 ft 10 kts 224°
2026-04-22 22:21 -5.76619 -35.37249 273 ft 12 kts 185°
2026-04-22 22:21 -5.76688 -35.37272 276 ft 5 kts 231°
2026-04-22 22:22 -5.76696 -35.37308 273 ft 7 kts 271°
2026-04-22 22:22 -5.76689 -35.37366 272 ft 10 kts 282°
2026-04-22 22:22 -5.76676 -35.37439 272 ft 14 kts 280°
2026-04-22 22:22 -5.76658 -35.37557 272 ft 20 kts 279°
2026-04-22 22:23 -5.76629 -35.37726 273 ft 27 kts 279°
2026-04-22 22:23 -5.76605 -35.37917 273 ft 27 kts 258°
2026-04-22 22:23 -5.76685 -35.37973 272 ft 0 kts 185°
2026-04-22 22:24 -5.76689 -35.37973 272 ft 2 kts 185°
2026-04-22 22:24 -5.76738 -35.37970 272 ft 10 kts 163°
2026-04-22 22:25 -5.76771 -35.37933 272 ft 6 kts 100°
2026-04-22 22:25 -5.76776 -35.37908 272 ft 2 kts 100°
2026-04-22 22:25 -5.76780 -35.37884 272 ft 17 kts 99°
2026-04-22 22:25 -5.76824 -35.37613 272 ft 94 kts 99°
2026-04-22 22:26 -5.76939 -35.36900 275 ft 165 kts 98°
2026-04-22 22:26 -5.77001 -35.36507 465 ft 156 kts 99°
2026-04-22 22:26 -5.77075 -35.36061 976 ft 162 kts 101°
2026-04-22 22:26 -5.77291 -35.34923 2249 ft 158 kts 102°
2026-04-22 22:27 -5.77120 -35.33689 2977 ft 204 kts 64°
2026-04-22 22:27 -5.75907 -35.32672 3352 ft 241 kts 20°
2026-04-22 22:27 -5.74016 -35.32762 4095 ft 257 kts 336°
2026-04-22 22:27 -5.72632 -35.33893 5102 ft 256 kts 301°
2026-04-22 22:28 -5.71997 -35.35536 6108 ft 256 kts 283°
2026-04-22 22:28 -5.71561 -35.37295 7000 ft 261 kts 282°
2026-04-22 22:28 -5.71089 -35.39157 7962 ft 265 kts 283°
2026-04-22 22:28 -5.70613 -35.40903 8861 ft 269 kts 284°
2026-04-22 22:29 -5.70079 -35.42738 9783 ft 274 kts 285°
2026-04-22 22:29 -5.69515 -35.44608 10664 ft 277 kts 286°
2026-04-22 22:29 -5.69118 -35.45909 11243 ft 280 kts 286°
2026-04-22 22:29 -5.68547 -35.47773 12086 ft 284 kts 286°
2026-04-22 22:30 -5.68328 -35.49775 12902 ft 287 kts 261°
2026-04-22 22:30 -5.68729 -35.51733 13751 ft 290 kts 255°
2026-04-22 22:30 -5.69234 -35.53722 14497 ft 294 kts 254°
2026-04-22 22:30 -5.69767 -35.55748 15294 ft 297 kts 254°
2026-04-22 22:31 -5.70296 -35.57759 16079 ft 300 kts 254°
2026-04-22 22:31 -5.70856 -35.59913 16881 ft 304 kts 255°
2026-04-22 22:31 -5.71376 -35.61930 17621 ft 308 kts 255°
2026-04-22 22:31 -5.71934 -35.64111 18372 ft 312 kts 255°
2026-04-22 22:32 -5.72496 -35.66322 19074 ft 315 kts 255°
2026-04-22 22:32 -5.73040 -35.68469 19772 ft 317 kts 255°
2026-04-22 22:32 -5.73616 -35.70749 20497 ft 320 kts 255°
2026-04-22 22:32 -5.74182 -35.72992 21189 ft 323 kts 255°
2026-04-22 22:33 -5.74724 -35.75139 21835 ft 327 kts 256°
2026-04-22 22:33 -5.75287 -35.77375 22491 ft 330 kts 256°
2026-04-22 22:33 -5.75879 -35.79725 23185 ft 333 kts 256°
2026-04-22 22:33 -5.76443 -35.81967 23805 ft 335 kts 256°
2026-04-22 22:34 -5.77026 -35.84284 24362 ft 337 kts 256°
2026-04-22 22:34 -5.77415 -35.85829 24721 ft 339 kts 256°
2026-04-22 22:34 -5.78005 -35.88172 25232 ft 343 kts 256°
2026-04-22 22:34 -5.78609 -35.90575 25793 ft 345 kts 256°
2026-04-22 22:35 -5.79192 -35.92890 26324 ft 348 kts 256°
2026-04-22 22:35 -5.79854 -35.95526 26900 ft 351 kts 256°
2026-04-22 22:35 -5.80401 -35.97700 27336 ft 355 kts 256°
2026-04-22 22:35 -5.81014 -36.00139 27853 ft 357 kts 256°
2026-04-22 22:36 -5.81623 -36.02562 28411 ft 359 kts 256°
2026-04-22 22:36 -5.82162 -36.04707 28848 ft 361 kts 256°
2026-04-22 22:36 -5.82780 -36.07166 29315 ft 365 kts 256°
2026-04-22 22:36 -5.83403 -36.09649 29836 ft 367 kts 256°
2026-04-22 22:37 -5.84036 -36.12168 30275 ft 370 kts 256°
2026-04-22 22:37 -5.84659 -36.14650 30647 ft 373 kts 256°
2026-04-22 22:37 -5.85232 -36.16933 30989 ft 376 kts 256°
2026-04-22 22:37 -5.85743 -36.18969 31308 ft 378 kts 256°
2026-04-22 22:38 -5.86435 -36.21570 31691 ft 380 kts 250°
2026-04-22 22:38 -5.87640 -36.23953 32063 ft 382 kts 238°
2026-04-22 22:38 -5.89012 -36.26147 32435 ft 384 kts 237°
2026-04-22 22:38 -5.90498 -36.28451 32799 ft 387 kts 237°
2026-04-22 22:39 -5.92044 -36.30852 33201 ft 389 kts 237°
2026-04-22 22:39 -5.93346 -36.32894 33516 ft 391 kts 237°
2026-04-22 22:39 -5.93888 -36.33750 33647 ft 392 kts 237°
2026-04-22 22:39 -5.95329 -36.36039 33961 ft 394 kts 238°
2026-04-22 22:40 -5.96776 -36.38353 33960 ft 404 kts 238°
2026-04-22 22:40 -5.99856 -36.43301 33987 ft 422 kts 238°
2026-04-22 22:41 -6.03033 -36.48414 33978 ft 435 kts 238°
2026-04-22 22:41 -6.07521 -36.55638 33986 ft 454 kts 238°
2026-04-22 22:42 -6.10904 -36.61076 33980 ft 466 kts 237°
2026-04-22 22:42 -6.18235 -36.70245 33990 ft 482 kts 228°
2026-04-22 22:43 -6.22608 -36.75278 33960 ft 481 kts 230°
2026-04-22 22:43 -6.27017 -36.80565 33955 ft 480 kts 230°
2026-04-22 22:44 -6.31420 -36.85886 33965 ft 483 kts 230°
2026-04-22 22:44 -6.35879 -36.91222 33956 ft 487 kts 230°
2026-04-22 22:45 -6.40325 -36.96546 33947 ft 487 kts 230°
2026-04-22 22:45 -6.44657 -37.01777 33927 ft 479 kts 230°
2026-04-22 22:45 -6.46745 -37.04307 33922 ft 459 kts 230°
2026-04-22 22:46 -6.48810 -37.06812 33924 ft 443 kts 230°
2026-04-22 22:46 -6.50716 -37.09122 33924 ft 428 kts 230°
2026-04-22 22:46 -6.52599 -37.11403 33931 ft 418 kts 230°
2026-04-22 22:47 -6.55715 -37.15179 33963 ft 425 kts 231°
2026-04-22 22:47 -6.60187 -37.20598 33955 ft 433 kts 231°
2026-04-22 22:48 -6.63375 -37.24460 33949 ft 432 kts 231°
2026-04-22 22:48 -6.67238 -37.29143 33945 ft 431 kts 231°
2026-04-22 22:49 -6.71090 -37.33813 33944 ft 430 kts 231°
2026-04-22 22:49 -6.73024 -37.36159 33923 ft 419 kts 231°
2026-04-22 22:49 -6.74660 -37.38142 33918 ft 401 kts 231°
2026-04-22 22:50 -6.76421 -37.40277 33931 ft 381 kts 231°
2026-04-22 22:50 -6.77886 -37.42054 33923 ft 366 kts 231°
2026-04-22 22:50 -6.79448 -37.43950 33933 ft 356 kts 231°
2026-04-22 22:51 -6.82661 -37.47851 33961 ft 357 kts 231°
2026-04-22 22:51 -6.85844 -37.51716 33964 ft 363 kts 231°
2026-04-22 22:52 -6.89062 -37.55649 33949 ft 361 kts 233°
2026-04-22 22:52 -6.92069 -37.59678 33955 ft 359 kts 234°
2026-04-22 22:53 -6.95027 -37.63723 33956 ft 358 kts 234°
2026-04-22 22:53 -6.97411 -37.66961 33957 ft 358 kts 234°
2026-04-22 22:54 -7.00371 -37.70963 33958 ft 358 kts 234°
2026-04-22 22:54 -7.03280 -37.74887 33958 ft 359 kts 234°
2026-04-22 22:55 -7.06212 -37.78844 33960 ft 360 kts 234°
2026-04-22 22:55 -7.10779 -37.85007 33951 ft 361 kts 234°
2026-04-22 22:56 -7.13786 -37.89068 33952 ft 362 kts 234°
2026-04-22 22:56 -7.16189 -37.92309 33949 ft 363 kts 233°
2026-04-22 22:57 -7.19441 -37.96181 33963 ft 363 kts 229°
2026-04-22 22:57 -7.22840 -37.99967 33966 ft 364 kts 229°
2026-04-22 22:58 -7.26267 -38.03805 33954 ft 364 kts 229°
2026-04-22 22:58 -7.29632 -38.07607 33969 ft 363 kts 230°
2026-04-22 22:59 -7.33025 -38.11455 33980 ft 363 kts 230°
2026-04-22 22:59 -7.36315 -38.15190 33961 ft 363 kts 230°
2026-04-22 23:00 -7.39637 -38.18963 33968 ft 363 kts 230°
2026-04-22 23:00 -7.42983 -38.22764 33971 ft 363 kts 230°
2026-04-22 23:01 -7.46296 -38.26528 33976 ft 363 kts 230°
2026-04-22 23:01 -7.49686 -38.30383 33995 ft 373 kts 230°
2026-04-22 23:02 -7.51524 -38.32474 34003 ft 385 kts 230°
2026-04-22 23:02 -7.53336 -38.34536 34036 ft 394 kts 229°
2026-04-22 23:02 -7.55323 -38.36793 34012 ft 405 kts 230°
2026-04-22 23:02 -7.56583 -38.38226 33994 ft 413 kts 230°
2026-04-22 23:03 -7.60532 -38.42718 34000 ft 431 kts 230°
2026-04-22 23:03 -7.64584 -38.47382 33991 ft 440 kts 231°
2026-04-22 23:04 -7.68488 -38.52153 33975 ft 441 kts 232°
2026-04-22 23:04 -7.72317 -38.56875 33982 ft 438 kts 232°
2026-04-22 23:05 -7.76356 -38.61821 33970 ft 434 kts 232°
2026-04-22 23:05 -7.80103 -38.66395 33983 ft 431 kts 232°
2026-04-22 23:06 -7.83930 -38.71064 33988 ft 428 kts 232°
2026-04-22 23:06 -7.87813 -38.75805 33989 ft 427 kts 232°
2026-04-22 23:07 -7.91593 -38.80422 33990 ft 428 kts 232°
2026-04-22 23:07 -7.94774 -38.84311 34004 ft 428 kts 232°
2026-04-22 23:08 -7.98577 -38.88957 33948 ft 415 kts 232°
2026-04-22 23:08 -8.00383 -38.91188 33865 ft 404 kts 233°
2026-04-22 23:08 -8.02133 -38.93360 33752 ft 394 kts 233°
2026-04-22 23:09 -8.03848 -38.95486 33610 ft 386 kts 232°
2026-04-22 23:09 -8.05475 -38.97482 33437 ft 379 kts 232°
2026-04-22 23:09 -8.07249 -38.99651 33240 ft 372 kts 232°
2026-04-22 23:09 -8.08898 -39.01666 33032 ft 366 kts 232°
2026-04-22 23:10 -8.10510 -39.03637 32805 ft 361 kts 232°
2026-04-22 23:10 -8.12109 -39.05594 32574 ft 358 kts 232°
2026-04-22 23:10 -8.13643 -39.07472 32348 ft 356 kts 232°
2026-04-22 23:10 -8.15196 -39.09375 32134 ft 356 kts 232°
2026-04-22 23:11 -8.16780 -39.11318 31940 ft 360 kts 232°
2026-04-22 23:11 -8.18395 -39.13299 31770 ft 365 kts 232°
2026-04-22 23:11 -8.20165 -39.15470 31584 ft 369 kts 232°
2026-04-22 23:11 -8.21788 -39.17462 31374 ft 387 kts 232°
2026-04-22 23:12 -8.23511 -39.19578 31185 ft 405 kts 232°
2026-04-22 23:12 -8.25283 -39.21754 30975 ft 418 kts 232°
2026-04-22 23:12 -8.27137 -39.24028 30740 ft 419 kts 232°
2026-04-22 23:12 -8.28955 -39.26255 30504 ft 416 kts 232°
2026-04-22 23:13 -8.30791 -39.28506 30188 ft 410 kts 232°
2026-04-22 23:13 -8.32600 -39.30724 29763 ft 407 kts 231°
2026-04-22 23:13 -8.36368 -39.35350 28819 ft 400 kts 231°
2026-04-22 23:13 -8.42553 -39.42952 27326 ft 389 kts 231°
2026-04-22 23:14 -8.44303 -39.45103 26917 ft 386 kts 231°
2026-04-22 23:14 -8.46012 -39.47202 26518 ft 383 kts 231°
2026-04-22 23:14 -8.47086 -39.48521 26262 ft 382 kts 231°
2026-04-22 23:14 -8.48795 -39.50620 25853 ft 379 kts 231°
2026-04-22 23:15 -8.50443 -39.52646 25458 ft 377 kts 231°
2026-04-22 23:15 -8.52103 -39.54688 25044 ft 376 kts 231°
2026-04-22 23:15 -8.53820 -39.56798 24614 ft 375 kts 231°
2026-04-22 23:15 -8.55400 -39.58742 24235 ft 374 kts 231°
2026-04-22 23:16 -8.57023 -39.60739 23834 ft 373 kts 231°
2026-04-22 23:16 -8.58642 -39.62731 23381 ft 372 kts 231°
2026-04-22 23:16 -8.60289 -39.64759 22954 ft 370 kts 231°
2026-04-22 23:16 -8.61916 -39.66762 22535 ft 367 kts 231°
2026-04-22 23:17 -8.63543 -39.68765 22133 ft 364 kts 231°
2026-04-22 23:17 -8.64939 -39.70483 21788 ft 362 kts 231°
2026-04-22 23:17 -8.66449 -39.72342 21414 ft 359 kts 231°
2026-04-22 23:17 -8.67996 -39.74247 21005 ft 358 kts 230°
2026-04-22 23:18 -8.69573 -39.76189 20600 ft 356 kts 230°
2026-04-22 23:18 -8.71140 -39.78121 20195 ft 355 kts 230°
2026-04-22 23:18 -8.72708 -39.80053 19801 ft 353 kts 230°
2026-04-22 23:18 -8.74265 -39.81973 19397 ft 352 kts 230°
2026-04-22 23:19 -8.75646 -39.83676 19058 ft 351 kts 230°
2026-04-22 23:19 -8.77125 -39.85500 18665 ft 351 kts 230°
2026-04-22 23:19 -8.78669 -39.87405 18282 ft 349 kts 230°
2026-04-22 23:19 -8.80180 -39.89268 17854 ft 348 kts 230°
2026-04-22 23:20 -8.81656 -39.91090 17476 ft 346 kts 230°
2026-04-22 23:20 -8.83193 -39.92986 17078 ft 343 kts 230°
2026-04-22 23:20 -8.84743 -39.94899 16692 ft 341 kts 230°
2026-04-22 23:20 -8.86188 -39.96683 16311 ft 338 kts 230°
2026-04-22 23:21 -8.87658 -39.98498 15948 ft 336 kts 230°
2026-04-22 23:21 -8.89023 -40.00183 15610 ft 335 kts 230°
2026-04-22 23:21 -8.90519 -40.02031 15227 ft 333 kts 230°
2026-04-22 23:21 -8.91971 -40.03823 14867 ft 331 kts 230°
2026-04-22 23:22 -8.93425 -40.05620 14484 ft 330 kts 230°
2026-04-22 23:22 -8.94851 -40.07382 14120 ft 329 kts 229°
2026-04-22 23:22 -8.95801 -40.08555 13870 ft 329 kts 229°
2026-04-22 23:22 -8.97616 -40.10798 13367 ft 327 kts 229°
2026-04-22 23:23 -8.98978 -40.12482 12993 ft 325 kts 229°
2026-04-22 23:23 -8.99960 -40.13695 12761 ft 323 kts 229°
2026-04-22 23:23 -9.01379 -40.15450 12385 ft 321 kts 229°
2026-04-22 23:23 -9.02790 -40.17194 12019 ft 319 kts 229°
2026-04-22 23:24 -9.04165 -40.18896 11670 ft 317 kts 229°
2026-04-22 23:24 -9.05610 -40.20682 11293 ft 315 kts 229°
2026-04-22 23:24 -9.07003 -40.22406 10937 ft 313 kts 229°
2026-04-22 23:24 -9.08361 -40.24086 10568 ft 312 kts 229°
2026-04-22 23:25 -9.09758 -40.25814 10227 ft 311 kts 229°
2026-04-22 23:25 -9.10903 -40.27231 10097 ft 303 kts 229°
2026-04-22 23:25 -9.12076 -40.28683 9898 ft 298 kts 229°
2026-04-22 23:25 -9.13312 -40.30278 9563 ft 297 kts 236°
2026-04-22 23:26 -9.14223 -40.32180 9237 ft 297 kts 246°
2026-04-22 23:26 -9.14929 -40.34000 8927 ft 295 kts 248°
2026-04-22 23:26 -9.15601 -40.35794 8634 ft 294 kts 248°
2026-04-22 23:26 -9.16282 -40.37606 8335 ft 292 kts 247°
2026-04-22 23:27 -9.17038 -40.39591 8008 ft 291 kts 247°
2026-04-22 23:27 -9.17711 -40.41343 7721 ft 289 kts 246°
2026-04-22 23:27 -9.18436 -40.43214 7411 ft 288 kts 246°
2026-04-22 23:27 -9.19161 -40.45073 7092 ft 287 kts 246°
2026-04-22 23:28 -9.19901 -40.46965 6785 ft 285 kts 246°
2026-04-22 23:28 -9.20630 -40.48827 6578 ft 280 kts 246°
2026-04-22 23:28 -9.21335 -40.50627 6399 ft 275 kts 246°
2026-04-22 23:28 -9.22044 -40.52434 6083 ft 274 kts 245°
2026-04-22 23:29 -9.22757 -40.54251 5768 ft 273 kts 246°
2026-04-22 23:29 -9.23439 -40.55987 5496 ft 272 kts 245°
2026-04-22 23:29 -9.24046 -40.57536 5416 ft 264 kts 245°
2026-04-22 23:29 -9.24665 -40.59113 5345 ft 256 kts 245°
2026-04-22 23:30 -9.25332 -40.60815 5234 ft 248 kts 245°
2026-04-22 23:30 -9.25971 -40.62443 5146 ft 239 kts 245°
2026-04-22 23:30 -9.26567 -40.63965 5052 ft 228 kts 244°
2026-04-22 23:30 -9.27123 -40.65385 4980 ft 213 kts 244°
2026-04-22 23:31 -9.27647 -40.66722 4805 ft 203 kts 244°
2026-04-22 23:31 -9.28177 -40.68077 4663 ft 189 kts 244°
2026-04-22 23:31 -9.28648 -40.69275 4449 ft 183 kts 242°
2026-04-22 23:31 -9.29446 -40.70242 4118 ft 166 kts 199°
2026-04-22 23:32 -9.30186 -40.70435 4009 ft 159 kts 175°
2026-04-22 23:32 -9.31159 -40.70196 3837 ft 155 kts 145°
2026-04-22 23:32 -9.31900 -40.69395 3634 ft 153 kts 113°
2026-04-22 23:32 -9.32278 -40.68304 3433 ft 150 kts 111°
2026-04-22 23:33 -9.32660 -40.67233 3204 ft 149 kts 111°
2026-04-22 23:33 -9.33001 -40.66264 2995 ft 147 kts 112°
2026-04-22 23:33 -9.33339 -40.65324 2824 ft 142 kts 111°
2026-04-22 23:33 -9.33599 -40.64579 2666 ft 138 kts 112°
2026-04-22 23:34 -9.33915 -40.63673 2469 ft 133 kts 111°
2026-04-22 23:34 -9.34237 -40.62748 2296 ft 129 kts 111°
2026-04-22 23:34 -9.34531 -40.61897 2023 ft 125 kts 111°
2026-04-22 23:34 -9.34770 -40.61203 1845 ft 131 kts 111°
2026-04-22 23:35 -9.35077 -40.60327 1812 ft 122 kts 111°
2026-04-22 23:35 -9.35189 -40.60008 1754 ft 123 kts 110°
2026-04-22 23:35 -9.35622 -40.58742 1373 ft 112 kts 112°
2026-04-22 23:35 -9.35744 -40.58392 1291 ft 106 kts 114°
2026-04-22 23:36 -9.35807 -40.58214 1264 ft 101 kts 109°
2026-04-22 23:36 -9.35987 -40.57674 1263 ft 81 kts 110°
2026-04-22 23:36 -9.36082 -40.57415 1263 ft 73 kts 109°
2026-04-22 23:36 -9.36210 -40.57040 1259 ft 78 kts 110°
2026-04-22 23:37 -9.36288 -40.56819 1260 ft 81 kts 109°
2026-04-22 23:37 -9.36319 -40.56722 1261 ft 82 kts 107°
2026-04-22 23:37 -9.36431 -40.56391 1258 ft 25 kts 112°
2026-04-22 23:38 -9.36469 -40.56282 1260 ft 25 kts 109°
2026-04-22 23:38 -9.36525 -40.56116 1261 ft 30 kts 108°
2026-04-22 23:38 -9.36597 -40.55960 1259 ft 13 kts 154°
2026-04-22 23:38 -9.36696 -40.55979 1260 ft 18 kts 198°
2026-04-22 23:39 -9.36732 -40.56027 1257 ft 8 kts 273°
2026-04-22 23:39 -9.36700 -40.56112 1258 ft 21 kts 289°
2026-04-22 23:39 -9.36633 -40.56305 1262 ft 35 kts 289°
2026-04-22 23:39 -9.36556 -40.56516 1261 ft 18 kts 290°
2026-04-22 23:40 -9.36545 -40.56562 1257 ft 3 kts 260°
2026-04-22 23:40 -9.36572 -40.56589 1261 ft 4 kts 198°
2026-04-22 23:40 -9.36576 -40.56590 1257 ft 0 kts 198°